Regional Weather Roundup
Issued by NWS Sioux Falls, SD

Home | Current Version | Previous Version | Text Only | Print | Product List | Glossary Off
Versions: 1 2 3 4 5 6 7 8 9 10 11 12 13 14 15 16 17 18 19 20 21 22 23 24 25 26 27 28 29 30 31 32 33 34 35 36 37 38 39 40 41 42 43 44 45 46 47 48 49 50

000
ASUS43 KFSD 010402
RWRFSD

WEATHER ROUNDUP FOR SE SOUTH DAKOTA/SW MINNESOTA/NW IOWA
NATIONAL WEATHER SERVICE SIOUX FALLS SD
1000 PM CST SAT JAN 31 2015

NOTE: "FAIR" INDICATES FEW OR NO CLOUDS BELOW 12,000 FEET WITH NO
SIGNIFICANT WEATHER AND OR OBSTRUCTIONS TO VISIBILITY.


SDZ038>040-050-052>070-010500-
SOUTHEAST SOUTH DAKOTA

CITY           SKY/WX    TMP DP  RH WIND       PRES   REMARKS
CHAMBERLAIN    NOT AVBL
HURON          CLOUDY    16   5  62 N15G23    30.16S WCI   1
MADISON        LGT SNOW  19  19 100 NE17G26   30.05S WCI   4
MITCHELL       LGT SNOW  20  17  88 N17       30.11R VSB 3/4 WCI   5
SIOUX FALLS    LGT SNOW  24  21  88 NE20      30.03S VSB 3/4 WCI  10
WINNER         LGT SNOW  17  13  84 N18       30.09R VSB 3/4 WCI   1
YANKTON        CLOUDY    27  23  86 NE17G23   30.01R WCI  14
$$

MNZ071-072-080-081-089-090-097-098-010500-
SOUTHWEST MINNESOTA

CITY           SKY/WX    TMP DP  RH WIND       PRES   REMARKS
FAIRMONT       CLOUDY    25  21  86 NE16      30.06S WCI  12
JACKSON        LGT SNOW  27  23  86 NE18      30.04F WCI  13
LUVERNE        LGT SNOW  27  23  86 NE16G23   30.03F WCI  14
MARSHALL       CLOUDY    23  10  58 NE17      30.14F WCI   9
MONTEVIDEO     CLOUDY    21  12  68 E16       30.19R WCI   7
PIPESTONE      LGT SNOW  21  21 100 E9        30.04S WCI  11
REDWOOD FALLS  CLOUDY    25  18  74 NE8       30.15S WCI  16
TRACY          CLOUDY    25  21  86 NE15      30.11S WCI  12
WINDOM         LGT SNOW  23  21  93 NE16G22   30.07S WCI  10
WORTHINGTON    CLOUDY    28  19  69 NE20      30.04F WCI  15
$$

IAZ001>003-012>014-020>022-031-032-NEZ013-014-SDZ071-010500-
NORTHWEST IOWA

CITY           SKY/WX    TMP DP  RH WIND       PRES   REMARKS
ESTHERVILLE    LGT SNOW  24  23  96 NE20      30.03F FOG     WCI  10
SIOUX CITY     LGT SNOW  31  29  92 NE16      29.94F VSB 1   WCI  20
SPENCER        LGT SNOW  27  23  85 NE22G31   30.01F FOG     WCI  13
$$

ABBREVIATIONS USED IN REMARKS
   TC - TEMPERATURE IN CELSIUS
  WCI - WIND CHILL INDEX
   HX - HEAT INDEX
  VSB - VISIBILITY




USA.gov is the U.S. government's official web portal to all federal, state and local government web resources and services.